Tracking 29892 objects as of 21-Nov-2024
HD Live streaming from Space Station
objects crossing your sky now

STARLINK-2516

Track STARLINK-2516 now!
10-day predictions
STARLINK-2516 is classified as:


NORAD ID: 48283
Int'l Code: 2021-036H
Perigee: 553.3 km
Apogee: 555.0 km
Inclination: 53.1 °
Period: 95.6 minutes
Semi major axis: 6925 km
RCS: Unknown
Launch date: April 29, 2021
Source: United States (US)
Launch site: AIR FORCE EASTERN TEST RANGE (AFETR)
Your satellite tracking list
Your tracking list is empty




NASA's NSSDC Master Catalog

Two Line Element Set (TLE):
1 48283U 21036H   24325.61619982  .00026767  00000-0  18062-2 0  9992
2 48283  53.0531  49.8162 0001240  92.1374 267.9757 15.06459086196864
Source of the keplerian elements: AFSPC